Time,TemperatureF,DewpointF,PressureIn,WindDirection,WindDirectionDegrees,WindSpeedMPH,WindSpeedGustMPH,Humidity,HourlyPrecipIn,Conditions,Clouds,dailyrainin,SoftwareType,DateUTC
2013-01-05 00:03:00,23.1,16.7,26.68,NNW,338,18.5,18.5,76,0.00,,,0.00,WUHU216HW,2013-01-05 05:03:00,
2013-01-05 00:08:00,23.1,16.7,26.68,NW,315,22.5,22.5,76,0.00,,,0.00,WUHU216HW,2013-01-05 05:08:00,
2013-01-05 00:13:00,23.1,16.7,26.68,NW,315,15.4,22.5,76,0.00,,,0.00,WUHU216HW,2013-01-05 05:13:00,
2013-01-05 00:18:00,23.1,16.7,26.67,NW,315,19.4,19.4,76,0.00,,,0.00,WUHU216HW,2013-01-05 05:18:00,
2013-01-05 00:23:00,23.0,16.5,26.67,WNW,293,18.7,21.0,76,0.00,,,0.00,WUHU216HW,2013-01-05 05:23:00,
2013-01-05 00:28:00,23.0,16.5,26.67,NW,315,18.5,21.0,76,0.00,,,0.00,WUHU216HW,2013-01-05 05:28:00,
2013-01-05 00:33:00,23.0,16.8,26.68,NW,315,12.5,19.0,77,0.00,,,0.00,WUHU216HW,2013-01-05 05:33:00,
2013-01-05 00:38:00,23.0,16.8,26.68,WNW,293,24.3,24.3,77,0.00,,,0.00,WUHU216HW,2013-01-05 05:38:00,
2013-01-05 00:43:00,23.0,16.8,26.68,NW,315,19.6,24.3,77,0.00,,,0.00,WUHU216HW,2013-01-05 05:43:00,
2013-01-05 00:48:00,23.0,16.8,26.68,NNW,338,21.0,21.0,77,0.00,,,0.00,WUHU216HW,2013-01-05 05:48:00,
2013-01-05 00:53:00,23.0,16.8,26.68,NW,315,20.5,23.4,77,0.00,,,0.00,WUHU216HW,2013-01-05 05:53:00,
2013-01-05 00:58:00,23.0,16.8,26.68,West,270,20.8,23.4,77,0.00,,,0.00,WUHU216HW,2013-01-05 05:58:00,
2013-01-05 01:03:00,23.0,16.8,26.68,NW,315,16.1,22.1,77,0.00,,,0.00,WUHU216HW,2013-01-05 06:03:00,
2013-01-05 01:08:00,23.0,16.8,26.67,NW,315,17.8,21.0,77,0.00,,,0.00,WUHU216HW,2013-01-05 06:08:00,
2013-01-05 01:13:00,23.0,16.8,26.67,NNW,338,18.3,25.0,77,0.00,,,0.00,WUHU216HW,2013-01-05 06:13:00,
2013-01-05 01:18:00,23.0,16.8,26.67,NNW,338,21.0,25.0,77,0.00,,,0.00,WUHU216HW,2013-01-05 06:18:00,
2013-01-05 01:23:00,23.0,16.8,26.66,NW,315,22.1,23.7,77,0.00,,,0.00,WUHU216HW,2013-01-05 06:23:00,
2013-01-05 01:28:00,23.0,16.8,26.67,NNW,338,20.1,23.7,77,0.00,,,0.00,WUHU216HW,2013-01-05 06:28:00,
2013-01-05 01:33:00,23.0,16.8,26.67,WNW,293,19.4,22.1,77,0.00,,,0.00,WUHU216HW,2013-01-05 06:33:00,
2013-01-05 01:39:00,23.0,16.8,26.68,NNW,338,21.0,21.0,77,0.00,,,0.00,WUHU216HW,2013-01-05 06:39:00,
2013-01-05 01:44:00,23.0,16.8,26.68,West,270,18.5,21.2,77,0.00,,,0.00,WUHU216HW,2013-01-05 06:44:00,
2013-01-05 01:49:00,23.0,16.8,26.68,NNW,338,17.2,21.2,77,0.00,,,0.00,WUHU216HW,2013-01-05 06:49:00,
2013-01-05 01:54:00,23.0,16.8,26.68,NW,315,16.7,19.6,77,0.00,,,0.00,WUHU216HW,2013-01-05 06:54:00,
2013-01-05 01:59:00,23.0,16.8,26.68,West,270,17.2,19.0,77,0.00,,,0.00,WUHU216HW,2013-01-05 06:59:00,
2013-01-05 02:04:00,23.0,16.8,26.68,WNW,293,16.7,19.0,77,0.00,,,0.00,WUHU216HW,2013-01-05 07:04:00,
2013-01-05 02:09:00,23.0,16.8,26.68,NW,315,16.1,20.1,77,0.00,,,0.00,WUHU216HW,2013-01-05 07:09:00,
2013-01-05 02:14:00,23.0,16.8,26.68,NNW,338,16.1,22.5,77,0.00,,,0.00,WUHU216HW,2013-01-05 07:14:00,
2013-01-05 02:19:00,23.0,16.8,26.68,NW,315,18.5,22.5,77,0.00,,,0.00,WUHU216HW,2013-01-05 07:19:00,
2013-01-05 02:24:00,23.0,16.8,26.68,NW,315,20.1,21.0,77,0.00,,,0.00,WUHU216HW,2013-01-05 07:24:00,
2013-01-05 02:29:00,22.8,16.6,26.67,WNW,293,31.0,31.0,77,0.00,,,0.00,WUHU216HW,2013-01-05 07:29:00,
2013-01-05 02:34:00,23.0,16.8,26.69,NW,315,18.5,31.0,77,0.00,,,0.00,WUHU216HW,2013-01-05 07:34:00,
2013-01-05 02:39:00,23.0,16.8,26.69,NW,315,16.5,21.0,77,0.00,,,0.00,WUHU216HW,2013-01-05 07:39:00,
2013-01-05 02:44:00,22.8,16.6,26.69,WNW,293,20.5,21.0,77,0.00,,,0.00,WUHU216HW,2013-01-05 07:44:00,
2013-01-05 02:49:00,22.8,16.6,26.69,NW,315,16.1,20.5,77,0.00,,,0.00,WUHU216HW,2013-01-05 07:49:00,
2013-01-05 02:54:00,22.8,16.9,26.70,West,270,15.4,19.2,78,0.00,,,0.00,WUHU216HW,2013-01-05 07:54:00,
2013-01-05 02:59:00,22.8,16.9,26.70,NNW,338,14.9,23.9,78,0.00,,,0.00,WUHU216HW,2013-01-05 07:59:00,
2013-01-05 03:04:00,22.8,16.9,26.70,NW,315,18.5,23.9,78,0.00,,,0.00,WUHU216HW,2013-01-05 08:04:00,
2013-01-05 03:09:00,22.8,16.6,26.70,WNW,293,16.3,22.1,77,0.00,,,0.00,WUHU216HW,2013-01-05 08:09:00,
2013-01-05 03:14:00,23.0,16.8,26.69,West,270,15.4,22.1,77,0.00,,,0.00,WUHU216HW,2013-01-05 08:14:00,
2013-01-05 03:19:00,23.1,17.0,26.69,West,270,16.5,16.5,77,0.00,,,0.00,WUHU216HW,2013-01-05 08:19:00,
2013-01-05 03:24:00,23.1,17.0,26.69,WNW,293,12.7,21.6,77,0.00,,,0.00,WUHU216HW,2013-01-05 08:24:00,
2013-01-05 03:29:00,23.1,17.0,26.69,West,270,17.4,21.6,77,0.00,,,0.00,WUHU216HW,2013-01-05 08:29:00,
2013-01-05 03:34:00,23.3,17.2,26.69,NW,315,13.8,29.5,77,0.00,,,0.00,WUHU216HW,2013-01-05 08:34:00,
2013-01-05 03:39:00,23.3,17.2,26.69,NW,315,12.0,29.5,77,0.00,,,0.00,WUHU216HW,2013-01-05 08:39:00,
2013-01-05 03:44:00,23.3,17.2,26.68,WNW,293,14.9,18.1,77,0.00,,,0.00,WUHU216HW,2013-01-05 08:44:00,
2013-01-05 03:49:00,23.3,16.8,26.69,WNW,293,16.7,18.1,76,0.00,,,0.00,WUHU216HW,2013-01-05 08:49:00,
2013-01-05 03:55:00,23.3,16.8,26.68,NW,315,13.6,23.0,76,0.00,,,0.00,WUHU216HW,2013-01-05 08:55:00,
2013-01-05 04:00:00,23.1,16.7,26.68,NW,315,16.1,25.0,76,0.00,,,0.00,WUHU216HW,2013-01-05 09:00:00,
2013-01-05 04:05:00,23.1,16.7,26.68,NW,315,17.0,25.0,76,0.00,,,0.00,WUHU216HW,2013-01-05 09:05:00,
2013-01-05 04:10:00,23.1,16.7,26.68,NW,315,14.5,20.5,76,0.00,,,0.00,WUHU216HW,2013-01-05 09:10:00,
2013-01-05 04:15:00,23.1,16.7,26.68,WNW,293,17.4,20.5,76,0.00,,,0.00,WUHU216HW,2013-01-05 09:15:00,
2013-01-05 04:20:00,23.1,16.7,26.68,WNW,293,20.1,20.1,76,0.00,,,0.00,WUHU216HW,2013-01-05 09:20:00,
2013-01-05 04:25:00,23.1,16.7,26.68,WNW,293,20.5,20.5,76,0.00,,,0.00,WUHU216HW,2013-01-05 09:25:00,
2013-01-05 04:30:00,23.1,16.7,26.69,NW,315,17.8,20.5,76,0.00,,,0.00,WUHU216HW,2013-01-05 09:30:00,
2013-01-05 04:35:00,23.3,16.8,26.69,WNW,293,12.0,17.8,76,0.00,,,0.00,WUHU216HW,2013-01-05 09:35:00,
2013-01-05 04:40:00,23.3,16.8,26.69,West,270,9.6,17.8,76,0.00,,,0.00,WUHU216HW,2013-01-05 09:40:00,
2013-01-05 04:45:00,23.1,16.7,26.69,NW,315,10.0,14.9,76,0.00,,,0.00,WUHU216HW,2013-01-05 09:45:00,
2013-01-05 04:50:00,23.3,16.8,26.69,NW,315,11.1,16.3,76,0.00,,,0.00,WUHU216HW,2013-01-05 09:50:00,
2013-01-05 04:55:00,23.3,16.8,26.69,WNW,293,12.0,16.3,76,0.00,,,0.00,WUHU216HW,2013-01-05 09:55:00,
2013-01-05 05:00:00,23.3,16.8,26.69,NW,315,8.9,13.6,76,0.00,,,0.00,WUHU216HW,2013-01-05 10:00:00,
2013-01-05 05:05:00,23.3,16.8,26.69,NW,315,12.5,14.9,76,0.00,,,0.00,WUHU216HW,2013-01-05 10:05:00,
2013-01-05 05:10:00,23.3,16.8,26.69,WNW,293,16.1,16.1,76,0.00,,,0.00,WUHU216HW,2013-01-05 10:10:00,
2013-01-05 05:15:00,23.3,16.8,26.69,WNW,293,11.8,16.1,76,0.00,,,0.00,WUHU216HW,2013-01-05 10:15:00,
2013-01-05 05:20:00,23.5,17.0,26.69,WNW,293,12.5,14.0,76,0.00,,,0.00,WUHU216HW,2013-01-05 10:20:00,
2013-01-05 05:25:00,23.5,17.0,26.68,NW,315,18.5,18.5,76,0.00,,,0.00,WUHU216HW,2013-01-05 10:25:00,
2013-01-05 05:30:00,23.5,16.7,26.68,WNW,293,15.6,18.5,75,0.00,,,0.00,WUHU216HW,2013-01-05 10:30:00,
2013-01-05 05:35:00,23.7,16.9,26.68,NW,315,20.3,20.3,75,0.00,,,0.00,WUHU216HW,2013-01-05 10:35:00,
2013-01-05 05:40:00,23.9,17.0,26.69,WNW,293,13.8,20.3,75,0.00,,,0.00,WUHU216HW,2013-01-05 10:40:00,
2013-01-05 05:45:00,23.9,17.0,26.69,West,270,9.1,20.3,75,0.00,,,0.00,WUHU216HW,2013-01-05 10:45:00,
2013-01-05 05:50:00,23.9,16.7,26.68,WNW,293,14.0,15.6,74,0.00,,,0.00,WUHU216HW,2013-01-05 10:50:00,
2013-01-05 05:56:00,23.9,16.7,26.69,WNW,293,14.7,15.6,74,0.00,,,0.00,WUHU216HW,2013-01-05 10:56:00,
2013-01-05 06:01:00,23.9,16.7,26.69,WNW,293,13.6,20.1,74,0.00,,,0.00,WUHU216HW,2013-01-05 11:01:00,
2013-01-05 06:06:00,23.9,16.7,26.69,WNW,293,9.1,20.1,74,0.00,,,0.00,WUHU216HW,2013-01-05 11:06:00,
2013-01-05 06:11:00,23.9,16.7,26.69,West,270,8.5,17.0,74,0.00,,,0.00,WUHU216HW,2013-01-05 11:11:00,
2013-01-05 06:16:00,23.9,16.7,26.69,WNW,293,14.3,14.3,74,0.00,,,0.00,WUHU216HW,2013-01-05 11:16:00,
2013-01-05 06:21:00,23.9,16.7,26.69,West,270,6.0,14.3,74,0.00,,,0.00,WUHU216HW,2013-01-05 11:21:00,
2013-01-05 06:26:00,23.9,16.7,26.69,WNW,293,7.3,13.1,74,0.00,,,0.00,WUHU216HW,2013-01-05 11:26:00,
2013-01-05 06:31:00,23.9,16.7,26.69,NW,315,7.3,11.1,74,0.00,,,0.00,WUHU216HW,2013-01-05 11:31:00,
2013-01-05 06:36:00,23.7,16.6,26.69,NNW,338,7.3,9.1,74,0.00,,,0.00,WUHU216HW,2013-01-05 11:36:00,
2013-01-05 06:41:00,23.7,16.3,26.71,NNW,338,10.0,10.0,73,0.00,,,0.00,WUHU216HW,2013-01-05 11:41:00,
2013-01-05 06:46:00,23.7,16.3,26.71,NW,315,10.2,10.2,73,0.00,,,0.00,WUHU216HW,2013-01-05 11:46:00,
2013-01-05 06:51:00,23.9,16.4,26.71,NW,315,7.1,10.2,73,0.00,,,0.00,WUHU216HW,2013-01-05 11:51:00,
2013-01-05 06:56:00,23.9,16.4,26.72,WNW,293,6.0,11.8,73,0.00,,,0.00,WUHU216HW,2013-01-05 11:56:00,
2013-01-05 07:01:00,23.9,16.4,26.72,NW,315,7.3,11.8,73,0.00,,,0.00,WUHU216HW,2013-01-05 12:01:00,
2013-01-05 07:06:00,23.9,16.4,26.72,WNW,293,7.1,11.6,73,0.00,,,0.00,WUHU216HW,2013-01-05 12:06:00,
2013-01-05 07:11:00,23.9,16.4,26.71,WNW,293,8.7,10.7,73,0.00,,,0.00,WUHU216HW,2013-01-05 12:11:00,
2013-01-05 07:16:00,23.9,16.4,26.71,WNW,293,6.9,8.7,73,0.00,,,0.00,WUHU216HW,2013-01-05 12:16:00,
2013-01-05 07:21:00,24.0,16.6,26.72,NW,315,6.0,8.5,73,0.00,,,0.00,WUHU216HW,2013-01-05 12:21:00,
2013-01-05 07:26:00,23.9,16.4,26.71,WNW,293,7.1,7.8,73,0.00,,,0.00,WUHU216HW,2013-01-05 12:26:00,
2013-01-05 07:31:00,23.9,16.4,26.72,NW,315,11.1,11.1,73,0.00,,,0.00,WUHU216HW,2013-01-05 12:31:00,
2013-01-05 07:36:00,23.9,16.1,26.72,WNW,293,9.6,11.1,72,0.00,,,0.00,WUHU216HW,2013-01-05 12:36:00,
2013-01-05 07:41:00,23.7,15.9,26.73,WNW,293,8.5,10.2,72,0.00,,,0.00,WUHU216HW,2013-01-05 12:41:00,
2013-01-05 07:46:00,23.5,16.1,26.72,WNW,293,9.1,9.3,73,0.00,,,0.00,WUHU216HW,2013-01-05 12:46:00,
2013-01-05 07:51:00,23.3,15.9,26.72,NW,315,8.7,9.1,73,0.00,,,0.00,WUHU216HW,2013-01-05 12:51:00,
2013-01-05 07:56:00,23.1,15.8,26.72,WNW,293,8.0,9.1,73,0.00,,,0.00,WUHU216HW,2013-01-05 12:56:00,
2013-01-05 08:01:00,23.1,15.8,26.73,WNW,293,8.7,8.7,73,0.00,,,0.00,WUHU216HW,2013-01-05 13:01:00,
2013-01-05 08:06:00,23.3,15.9,26.73,West,270,8.0,13.4,73,0.00,,,0.00,WUHU216HW,2013-01-05 13:06:00,
2013-01-05 08:11:00,23.7,16.3,26.74,WNW,293,9.1,13.4,73,0.00,,,0.00,WUHU216HW,2013-01-05 13:11:00,
2013-01-05 08:16:00,23.9,16.4,26.73,WNW,293,11.6,11.6,73,0.00,,,0.00,WUHU216HW,2013-01-05 13:16:00,
2013-01-05 08:21:00,24.0,16.3,26.74,West,270,9.6,11.6,72,0.00,,,0.00,WUHU216HW,2013-01-05 13:21:00,
2013-01-05 08:26:00,24.6,16.8,26.74,NW,315,9.6,11.6,72,0.00,,,0.00,WUHU216HW,2013-01-05 13:26:00,
2013-01-05 08:31:00,24.4,16.3,26.73,NW,315,8.7,10.9,71,0.00,,,0.00,WUHU216HW,2013-01-05 13:31:00,
2013-01-05 08:36:00,24.0,15.9,26.74,NW,315,7.8,9.6,71,0.00,,,0.00,WUHU216HW,2013-01-05 13:36:00,
2013-01-05 08:41:00,23.7,15.8,26.74,NW,315,6.7,8.7,71,0.00,,,0.00,WUHU216HW,2013-01-05 13:41:00,
2013-01-05 08:46:00,23.5,15.8,26.73,WNW,293,7.8,7.8,72,0.00,,,0.00,WUHU216HW,2013-01-05 13:46:00,
2013-01-05 08:51:00,23.5,15.8,26.73,WNW,293,11.4,11.4,72,0.00,,,0.00,WUHU216HW,2013-01-05 13:51:00,
2013-01-05 08:56:00,23.5,16.1,26.73,WNW,293,8.0,11.4,73,0.00,,,0.00,WUHU216HW,2013-01-05 13:56:00,
2013-01-05 09:01:00,23.5,16.1,26.74,NW,315,9.8,11.1,73,0.00,,,0.00,WUHU216HW,2013-01-05 14:01:00,
2013-01-05 09:06:00,23.5,16.1,26.74,WNW,293,9.6,11.1,73,0.00,,,0.00,WUHU216HW,2013-01-05 14:06:00,
2013-01-05 09:11:00,23.9,16.1,26.74,WNW,293,7.8,10.5,72,0.00,,,0.00,WUHU216HW,2013-01-05 14:11:00,
2013-01-05 09:16:00,24.4,16.6,26.74,WNW,293,10.2,10.2,72,0.00,,,0.00,WUHU216HW,2013-01-05 14:16:00,
2013-01-05 09:21:00,24.9,16.8,26.74,WNW,293,7.8,10.2,71,0.00,,,0.00,WUHU216HW,2013-01-05 14:21:00,
2013-01-05 09:26:00,25.7,16.8,26.74,WNW,293,4.9,10.2,69,0.00,,,0.00,WUHU216HW,2013-01-05 14:26:00,
2013-01-05 09:32:00,26.2,17.4,26.74,WNW,293,4.9,7.3,69,0.00,,,0.00,WUHU216HW,2013-01-05 14:32:00,
2013-01-05 09:37:00,26.4,17.6,26.74,West,270,4.0,4.9,69,0.00,,,0.00,WUHU216HW,2013-01-05 14:37:00,
2013-01-05 09:42:00,26.9,17.7,26.74,West,270,0.0,4.9,68,0.00,,,0.00,WUHU216HW,2013-01-05 14:42:00,
2013-01-05 09:47:00,27.1,17.9,26.74,West,270,1.1,4.2,68,0.00,,,0.00,WUHU216HW,2013-01-05 14:47:00,
2013-01-05 09:52:00,27.3,18.1,26.74,WNW,293,1.5,4.2,68,0.00,,,0.00,WUHU216HW,2013-01-05 14:52:00,
2013-01-05 09:57:00,27.6,18.1,26.74,West,270,2.9,3.1,67,0.00,,,0.00,WUHU216HW,2013-01-05 14:57:00,
2013-01-05 10:02:00,28.0,18.5,26.74,West,270,0.0,2.9,67,0.00,,,0.00,WUHU216HW,2013-01-05 15:02:00,
2013-01-05 10:07:00,28.2,18.3,26.74,West,270,0.0,2.9,66,0.00,,,0.00,WUHU216HW,2013-01-05 15:07:00,
2013-01-05 10:12:00,28.5,18.6,26.75,West,270,3.5,3.5,66,0.00,,,0.00,WUHU216HW,2013-01-05 15:12:00,
2013-01-05 10:17:00,28.9,18.6,26.74,WNW,293,0.0,3.5,65,0.00,,,0.00,WUHU216HW,2013-01-05 15:17:00,
2013-01-05 10:22:00,29.3,18.9,26.74,West,270,0.0,3.5,65,0.00,,,0.00,WUHU216HW,2013-01-05 15:22:00,
2013-01-05 10:27:00,30.0,19.0,26.74,West,270,0.0,0.0,64,0.00,,,0.00,WUHU216HW,2013-01-05 15:27:00,
2013-01-05 10:32:00,30.5,19.7,26.74,West,270,0.0,0.0,64,0.00,,,0.00,WUHU216HW,2013-01-05 15:32:00,
2013-01-05 10:37:00,30.9,19.7,26.74,WNW,293,0.0,0.0,63,0.00,,,0.00,WUHU216HW,2013-01-05 15:37:00,
2013-01-05 10:42:00,31.6,20.1,26.74,West,270,0.0,0.0,62,0.00,,,0.00,WUHU216HW,2013-01-05 15:42:00,
2013-01-05 10:47:00,32.0,20.4,26.74,West,270,0.0,0.0,62,0.00,,,0.00,WUHU216HW,2013-01-05 15:47:00,
2013-01-05 10:52:00,32.1,20.6,26.73,West,270,0.0,0.0,62,0.00,,,0.00,WUHU216HW,2013-01-05 15:52:00,
2013-01-05 10:57:00,32.3,20.4,26.73,West,270,0.0,0.0,62,0.00,,,0.00,WUHU216HW,2013-01-05 15:57:00,
2013-01-05 11:02:00,32.7,20.7,26.73,West,270,0.0,0.0,61,0.00,,,0.00,WUHU216HW,2013-01-05 16:02:00,
2013-01-05 11:07:00,32.9,20.9,26.74,West,270,0.0,0.0,61,0.00,,,0.00,WUHU216HW,2013-01-05 16:07:00,
2013-01-05 11:12:00,33.0,20.7,26.74,West,270,0.0,0.0,60,0.00,,,0.00,WUHU216HW,2013-01-05 16:12:00,
2013-01-05 11:17:00,33.4,21.0,26.74,West,270,0.0,0.0,60,0.00,,,0.00,WUHU216HW,2013-01-05 16:17:00,
2013-01-05 11:22:00,33.6,21.2,26.73,West,270,0.0,0.0,60,0.00,,,0.00,WUHU216HW,2013-01-05 16:22:00,
2013-01-05 11:27:00,33.6,20.7,26.72,West,270,0.0,0.0,59,0.00,,,0.00,WUHU216HW,2013-01-05 16:27:00,
2013-01-05 11:32:00,33.9,21.1,26.73,West,270,0.0,0.0,59,0.00,,,0.00,WUHU216HW,2013-01-05 16:32:00,
2013-01-05 11:37:00,34.3,21.0,26.73,SSE,158,2.4,2.4,58,0.00,,,0.00,WUHU216HW,2013-01-05 16:37:00,
2013-01-05 11:42:00,34.5,20.8,26.72,SSE,158,1.3,2.4,57,0.00,,,0.00,WUHU216HW,2013-01-05 16:42:00,
2013-01-05 11:47:00,35.2,21.5,26.72,SSE,158,0.0,2.4,57,0.00,,,0.00,WUHU216HW,2013-01-05 16:47:00,
2013-01-05 11:52:00,35.9,21.7,26.72,SE,135,0.0,0.0,56,0.00,,,0.00,WUHU216HW,2013-01-05 16:52:00,
2013-01-05 11:57:00,36.6,22.4,26.71,SE,135,4.0,4.2,56,0.00,,,0.00,WUHU216HW,2013-01-05 16:57:00,
2013-01-05 12:02:00,37.0,21.8,26.71,SE,135,0.0,4.2,54,0.00,,,0.00,WUHU216HW,2013-01-05 17:02:00,
2013-01-05 12:07:00,37.5,21.9,26.71,SE,135,2.0,4.4,53,0.00,,,0.00,WUHU216HW,2013-01-05 17:07:00,
2013-01-05 12:12:00,37.9,22.6,26.70,SE,135,2.6,6.4,54,0.00,,,0.00,WUHU216HW,2013-01-05 17:12:00,
2013-01-05 12:17:00,37.9,22.2,26.69,SE,135,0.0,7.3,53,0.00,,,0.00,WUHU216HW,2013-01-05 17:17:00,
2013-01-05 12:22:00,38.4,23.1,26.69,SE,135,0.0,7.3,54,0.00,,,0.00,WUHU216HW,2013-01-05 17:22:00,
2013-01-05 12:27:00,38.8,23.5,26.69,ESE,113,0.0,5.5,54,0.00,,,0.00,WUHU216HW,2013-01-05 17:27:00,
2013-01-05 12:32:00,38.8,23.5,26.67,SE,135,0.0,2.6,54,0.00,,,0.00,WUHU216HW,2013-01-05 17:32:00,
2013-01-05 12:37:00,39.0,23.6,26.67,SE,135,3.1,3.1,54,0.00,,,0.00,WUHU216HW,2013-01-05 17:37:00,
2013-01-05 12:42:00,39.5,23.7,26.67,SE,135,2.2,3.1,53,0.00,,,0.00,WUHU216HW,2013-01-05 17:42:00,
2013-01-05 12:47:00,39.9,24.0,26.67,SSE,158,2.6,4.9,53,0.00,,,0.00,WUHU216HW,2013-01-05 17:47:00,
2013-01-05 12:52:00,40.2,23.5,26.66,SSE,158,5.8,5.8,51,0.00,,,0.00,WUHU216HW,2013-01-05 17:52:00,
2013-01-05 12:57:00,40.6,23.8,26.66,SSE,158,6.7,6.7,51,0.00,,,0.00,WUHU216HW,2013-01-05 17:57:00,
2013-01-05 13:02:00,41.0,24.1,26.67,SSE,158,6.4,6.7,49,0.00,,,0.00,WUHU216HW,2013-01-05 18:02:00,
2013-01-05 13:07:00,41.1,22.8,26.66,SSE,158,5.8,6.4,48,0.00,,,0.00,WUHU216HW,2013-01-05 18:07:00,
2013-01-05 13:12:00,41.3,23.0,26.66,SSE,158,4.2,6.4,48,0.00,,,0.00,WUHU216HW,2013-01-05 18:12:00,
2013-01-05 13:17:00,41.5,23.1,26.66,South,180,0.0,5.8,48,0.00,,,0.00,WUHU216HW,2013-01-05 18:17:00,
2013-01-05 13:22:00,41.9,23.5,26.66,SE,135,6.0,6.0,48,0.00,,,0.00,WUHU216HW,2013-01-05 18:22:00,
2013-01-05 13:27:00,42.0,23.1,26.66,South,180,0.0,6.0,47,0.00,,,0.00,WUHU216HW,2013-01-05 18:27:00,
2013-01-05 13:32:00,42.4,23.3,26.66,SSE,158,2.4,6.0,47,0.00,,,0.00,WUHU216HW,2013-01-05 18:32:00,
2013-01-05 13:37:00,42.4,23.5,26.65,ESE,113,0.0,5.8,47,0.00,,,0.00,WUHU216HW,2013-01-05 18:37:00,
2013-01-05 13:42:00,42.4,23.5,26.66,ENE,68,2.4,2.4,47,0.00,,,0.00,WUHU216HW,2013-01-05 18:42:00,
2013-01-05 13:48:00,42.4,23.3,26.66,ENE,68,0.0,4.4,47,0.00,,,0.00,WUHU216HW,2013-01-05 18:48:00,
2013-01-05 13:53:00,42.0,23.1,26.66,ENE,68,0.0,4.4,47,0.00,,,0.00,WUHU216HW,2013-01-05 18:53:00,
2013-01-05 13:58:00,42.0,23.1,26.66,ENE,68,0.0,0.0,47,0.00,,,0.00,WUHU216HW,2013-01-05 18:58:00,
2013-01-05 14:03:00,42.0,23.7,26.66,ENE,68,0.0,0.0,47,0.00,,,0.00,WUHU216HW,2013-01-05 19:03:00,
2013-01-05 14:08:00,42.0,23.7,26.66,North,0,0.0,0.0,48,0.00,,,0.00,WUHU216HW,2013-01-05 19:08:00,
2013-01-05 14:13:00,42.0,23.7,26.66,North,0,0.6,0.6,48,0.00,,,0.00,WUHU216HW,2013-01-05 19:13:00,
2013-01-05 14:18:00,42.0,23.9,26.66,NNW,338,0.0,1.3,48,0.00,,,0.00,WUHU216HW,2013-01-05 19:18:00,
2013-01-05 14:23:00,42.4,24.0,26.66,NNW,338,0.6,1.3,48,0.00,,,0.00,WUHU216HW,2013-01-05 19:23:00,
2013-01-05 14:28:00,42.4,24.0,26.66,NNW,338,0.0,0.6,48,0.00,,,0.00,WUHU216HW,2013-01-05 19:28:00,
2013-01-05 14:33:00,42.6,24.2,26.66,NNW,338,0.0,0.6,48,0.00,,,0.00,WUHU216HW,2013-01-05 19:33:00,
2013-01-05 14:38:00,42.6,24.2,26.66,NNW,338,0.0,0.0,48,0.00,,,0.00,WUHU216HW,2013-01-05 19:38:00,
2013-01-05 14:43:00,42.9,24.6,26.66,NNW,338,0.0,0.0,48,0.00,,,0.00,WUHU216HW,2013-01-05 19:43:00,
2013-01-05 14:48:00,42.9,24.2,26.66,NNW,338,0.0,0.0,47,0.00,,,0.00,WUHU216HW,2013-01-05 19:48:00,
2013-01-05 14:53:00,43.1,24.2,26.66,NNW,338,0.0,0.0,47,0.00,,,0.00,WUHU216HW,2013-01-05 19:53:00,
2013-01-05 14:58:00,43.1,24.2,26.66,NNW,338,0.0,0.0,47,0.00,,,0.00,WUHU216HW,2013-01-05 19:58:00,
2013-01-05 15:03:00,43.3,24.3,26.66,NNW,338,0.0,0.0,47,0.00,,,0.00,WUHU216HW,2013-01-05 20:03:00,
2013-01-05 15:08:00,43.5,24.5,26.65,NNW,338,0.0,0.0,47,0.00,,,0.00,WUHU216HW,2013-01-05 20:08:00,
2013-01-05 15:13:00,43.5,24.5,26.65,NNW,338,0.0,0.0,47,0.00,,,0.00,WUHU216HW,2013-01-05 20:13:00,
2013-01-05 15:18:00,43.5,24.0,26.65,NNW,338,0.0,0.0,47,0.00,,,0.00,WUHU216HW,2013-01-05 20:18:00,
2013-01-05 15:23:00,43.5,23.4,26.65,ESE,113,0.0,0.0,45,0.00,,,0.00,WUHU216HW,2013-01-05 20:23:00,
2013-01-05 15:28:00,43.7,22.5,26.66,ESE,113,0.0,0.0,43,0.00,,,0.00,WUHU216HW,2013-01-05 20:28:00,
2013-01-05 15:33:00,43.8,22.7,26.65,ESE,113,0.0,0.0,43,0.00,,,0.00,WUHU216HW,2013-01-05 20:33:00,
2013-01-05 15:38:00,44.0,21.7,26.65,SE,135,0.0,2.0,41,0.00,,,0.00,WUHU216HW,2013-01-05 20:38:00,
2013-01-05 15:43:00,44.2,21.9,26.66,SE,135,0.0,2.6,41,0.00,,,0.00,WUHU216HW,2013-01-05 20:43:00,
2013-01-05 15:48:00,44.2,21.4,26.65,SSE,158,2.6,2.6,40,0.00,,,0.00,WUHU216HW,2013-01-05 20:48:00,
2013-01-05 15:53:00,44.2,21.4,26.65,SE,135,0.0,2.6,40,0.00,,,0.00,WUHU216HW,2013-01-05 20:53:00,
2013-01-05 15:58:00,44.0,21.2,26.65,SSE,158,2.0,6.9,40,0.00,,,0.00,WUHU216HW,2013-01-05 20:58:00,
2013-01-05 16:03:00,43.8,21.0,26.64,SSE,158,7.3,7.3,40,0.00,,,0.00,WUHU216HW,2013-01-05 21:03:00,
2013-01-05 16:08:00,43.8,20.4,26.64,SE,135,6.2,7.3,39,0.00,,,0.00,WUHU216HW,2013-01-05 21:08:00,
2013-01-05 16:13:00,43.7,20.2,26.65,SSE,158,5.3,6.2,39,0.00,,,0.00,WUHU216HW,2013-01-05 21:13:00,
2013-01-05 16:18:00,43.5,20.7,26.65,SSE,158,2.9,5.3,40,0.00,,,0.00,WUHU216HW,2013-01-05 21:18:00,
2013-01-05 16:23:00,43.3,19.2,26.65,SE,135,9.3,9.3,38,0.00,,,0.00,WUHU216HW,2013-01-05 21:23:00,
2013-01-05 16:28:00,43.1,19.1,26.65,SSE,158,3.5,10.9,38,0.00,,,0.00,WUHU216HW,2013-01-05 21:28:00,
2013-01-05 16:33:00,42.6,18.6,26.65,SE,135,6.9,10.9,38,0.00,,,0.00,WUHU216HW,2013-01-05 21:33:00,
2013-01-05 16:38:00,42.6,19.2,26.64,SE,135,7.3,7.3,39,0.00,,,0.00,WUHU216HW,2013-01-05 21:38:00,
2013-01-05 16:43:00,42.0,18.8,26.64,SSE,158,8.7,8.7,39,0.00,,,0.00,WUHU216HW,2013-01-05 21:43:00,
2013-01-05 16:48:00,41.9,19.3,26.64,SE,135,8.2,8.7,40,0.00,,,0.00,WUHU216HW,2013-01-05 21:48:00,
2013-01-05 16:53:00,41.7,19.1,26.64,SSE,158,7.8,8.7,40,0.00,,,0.00,WUHU216HW,2013-01-05 21:53:00,
2013-01-05 16:58:00,41.3,18.8,26.64,SE,135,8.5,12.9,40,0.00,,,0.00,WUHU216HW,2013-01-05 21:58:00,
2013-01-05 17:03:00,41.0,18.5,26.64,SSE,158,8.0,12.9,40,0.00,,,0.00,WUHU216HW,2013-01-05 22:03:00,
2013-01-05 17:08:00,40.8,18.3,26.64,SE,135,10.7,10.7,40,0.00,,,0.00,WUHU216HW,2013-01-05 22:08:00,
2013-01-05 17:13:00,40.4,18.5,26.64,SE,135,8.0,10.7,41,0.00,,,0.00,WUHU216HW,2013-01-05 22:13:00,
2013-01-05 17:18:00,40.2,18.3,26.64,SE,135,10.7,10.7,41,0.00,,,0.00,WUHU216HW,2013-01-05 22:18:00,
2013-01-05 17:23:00,39.9,18.0,26.64,South,180,8.9,10.7,41,0.00,,,0.00,WUHU216HW,2013-01-05 22:23:00,
2013-01-05 17:29:00,39.7,18.4,26.64,SSE,158,13.6,13.6,42,0.00,,,0.00,WUHU216HW,2013-01-05 22:29:00,
2013-01-05 17:34:00,39.5,18.2,26.64,SE,135,11.1,13.6,42,0.00,,,0.00,WUHU216HW,2013-01-05 22:34:00,
2013-01-05 17:39:00,39.3,18.0,26.65,SE,135,8.5,13.6,42,0.00,,,0.00,WUHU216HW,2013-01-05 22:39:00,
2013-01-05 17:44:00,39.0,18.2,26.65,SSE,158,10.0,10.2,43,0.00,,,0.00,WUHU216HW,2013-01-05 22:44:00,
2013-01-05 17:49:00,38.8,18.1,26.65,SSE,158,10.0,10.9,43,0.00,,,0.00,WUHU216HW,2013-01-05 22:49:00,
2013-01-05 17:54:00,38.8,18.6,26.65,SSE,158,8.9,10.9,44,0.00,,,0.00,WUHU216HW,2013-01-05 22:54:00,
2013-01-05 17:59:00,38.4,18.3,26.65,SE,135,7.8,9.8,44,0.00,,,0.00,WUHU216HW,2013-01-05 22:59:00,
2013-01-05 18:04:00,38.4,18.3,26.65,SSE,158,8.5,11.6,44,0.00,,,0.00,WUHU216HW,2013-01-05 23:04:00,
2013-01-05 18:09:00,38.3,18.1,26.65,SSE,158,8.7,11.6,44,0.00,,,0.00,WUHU216HW,2013-01-05 23:09:00,
2013-01-05 18:14:00,38.1,17.9,26.65,SSE,158,9.3,11.4,44,0.00,,,0.00,WUHU216HW,2013-01-05 23:14:00,
2013-01-05 18:19:00,38.1,17.9,26.66,SSE,158,10.0,11.4,44,0.00,,,0.00,WUHU216HW,2013-01-05 23:19:00,
2013-01-05 18:24:00,37.9,18.3,26.66,SSE,158,11.4,11.4,45,0.00,,,0.00,WUHU216HW,2013-01-05 23:24:00,
2013-01-05 18:29:00,37.9,18.3,26.65,SSE,158,11.1,11.4,45,0.00,,,0.00,WUHU216HW,2013-01-05 23:29:00,
2013-01-05 18:34:00,37.7,18.1,26.64,SSE,158,6.9,11.1,45,0.00,,,0.00,WUHU216HW,2013-01-05 23:34:00,
2013-01-05 18:39:00,37.5,18.1,26.65,SSE,158,9.3,11.1,45,0.00,,,0.00,WUHU216HW,2013-01-05 23:39:00,
2013-01-05 18:44:00,37.5,18.5,26.64,SSE,158,7.3,9.3,46,0.00,,,0.00,WUHU216HW,2013-01-05 23:44:00,
2013-01-05 18:49:00,37.4,18.3,26.65,SSE,158,8.5,8.5,46,0.00,,,0.00,WUHU216HW,2013-01-05 23:49:00,
2013-01-05 18:54:00,37.4,18.9,26.65,SSE,158,9.8,9.8,47,0.00,,,0.00,WUHU216HW,2013-01-05 23:54:00,
2013-01-05 18:59:00,37.2,18.7,26.66,SSE,158,8.0,9.8,47,0.00,,,0.00,WUHU216HW,2013-01-05 23:59:00,
2013-01-05 19:04:00,37.2,18.7,26.65,SE,135,8.2,9.6,47,0.00,,,0.00,WUHU216HW,2013-01-06 00:04:00,
2013-01-05 19:09:00,37.2,18.7,26.64,SSE,158,6.9,9.6,47,0.00,,,0.00,WUHU216HW,2013-01-06 00:09:00,
2013-01-05 19:14:00,37.2,18.7,26.64,SE,135,6.9,9.8,47,0.00,,,0.00,WUHU216HW,2013-01-06 00:14:00,
2013-01-05 19:19:00,37.2,19.2,26.65,SE,135,7.6,9.8,48,0.00,,,0.00,WUHU216HW,2013-01-06 00:19:00,
2013-01-05 19:24:00,37.2,19.2,26.65,SSE,158,8.2,8.7,48,0.00,,,0.00,WUHU216HW,2013-01-06 00:24:00,
2013-01-05 19:29:00,37.2,19.2,26.66,SE,135,6.9,8.7,48,0.00,,,0.00,WUHU216HW,2013-01-06 00:29:00,
2013-01-05 19:34:00,37.0,19.6,26.64,SSE,158,7.8,8.2,49,0.00,,,0.00,WUHU216HW,2013-01-06 00:34:00,
2013-01-05 19:39:00,37.0,20.1,26.65,SSE,158,7.6,8.2,50,0.00,,,0.00,WUHU216HW,2013-01-06 00:39:00,
2013-01-05 19:44:00,36.8,19.9,26.65,SSE,158,7.3,7.8,50,0.00,,,0.00,WUHU216HW,2013-01-06 00:44:00,
2013-01-05 19:49:00,36.6,20.2,26.66,SSE,158,4.9,7.6,51,0.00,,,0.00,WUHU216HW,2013-01-06 00:49:00,
2013-01-05 19:54:00,36.6,20.2,26.66,SSE,158,4.9,7.1,51,0.00,,,0.00,WUHU216HW,2013-01-06 00:54:00,
2013-01-05 19:59:00,36.5,20.1,26.66,SSE,158,6.7,6.7,51,0.00,,,0.00,WUHU216HW,2013-01-06 00:59:00,
2013-01-05 20:04:00,36.5,20.1,26.66,SSE,158,4.2,6.7,51,0.00,,,0.00,WUHU216HW,2013-01-06 01:04:00,
2013-01-05 20:09:00,36.5,20.1,26.65,SSE,158,7.1,7.1,51,0.00,,,0.00,WUHU216HW,2013-01-06 01:09:00,
2013-01-05 20:14:00,36.3,19.9,26.65,SSE,158,6.4,7.6,51,0.00,,,0.00,WUHU216HW,2013-01-06 01:14:00,
2013-01-05 20:19:00,36.3,19.9,26.64,SSE,158,8.9,8.9,51,0.00,,,0.00,WUHU216HW,2013-01-06 01:19:00,
2013-01-05 20:24:00,36.3,19.9,26.64,SSE,158,8.7,9.6,51,0.00,,,0.00,WUHU216HW,2013-01-06 01:24:00,
2013-01-05 20:29:00,36.3,20.3,26.64,SSE,158,8.5,10.0,52,0.00,,,0.00,WUHU216HW,2013-01-06 01:29:00,
2013-01-05 20:34:00,36.1,20.2,26.64,SSE,158,6.9,10.0,52,0.00,,,0.00,WUHU216HW,2013-01-06 01:34:00,
2013-01-05 20:39:00,36.1,20.2,26.65,SW,225,0.0,8.7,52,0.00,,,0.00,WUHU216HW,2013-01-06 01:39:00,
2013-01-05 20:44:00,36.1,20.2,26.65,WNW,293,3.3,6.9,52,0.00,,,0.00,WUHU216HW,2013-01-06 01:44:00,
2013-01-05 20:49:00,36.3,20.3,26.64,WNW,293,0.0,4.6,52,0.00,,,0.00,WUHU216HW,2013-01-06 01:49:00,
2013-01-05 20:54:00,36.3,20.3,26.63,WNW,293,0.0,3.3,52,0.00,,,0.00,WUHU216HW,2013-01-06 01:54:00,
2013-01-05 20:59:00,36.3,20.3,26.63,WNW,293,0.0,0.0,52,0.00,,,0.00,WUHU216HW,2013-01-06 01:59:00,
2013-01-05 21:04:00,36.3,20.3,26.64,South,180,6.7,6.7,52,0.00,,,0.00,WUHU216HW,2013-01-06 02:04:00,
2013-01-05 21:09:00,36.3,20.3,26.64,South,180,0.0,6.7,52,0.00,,,0.00,WUHU216HW,2013-01-06 02:09:00,
2013-01-05 21:14:00,36.3,20.3,26.65,South,180,0.0,6.7,52,0.00,,,0.00,WUHU216HW,2013-01-06 02:14:00,
2013-01-05 21:20:00,36.3,20.3,26.65,WNW,293,1.5,2.2,52,0.00,,,0.00,WUHU216HW,2013-01-06 02:20:00,
2013-01-05 21:25:00,36.5,20.9,26.64,WNW,293,0.0,2.2,53,0.00,,,0.00,WUHU216HW,2013-01-06 02:25:00,
2013-01-05 21:30:00,36.3,20.8,26.65,WNW,293,0.0,1.5,53,0.00,,,0.00,WUHU216HW,2013-01-06 02:30:00,
2013-01-05 21:35:00,36.5,20.9,26.65,WNW,293,0.0,2.4,53,0.00,,,0.00,WUHU216HW,2013-01-06 02:35:00,
2013-01-05 21:40:00,36.5,20.9,26.65,WNW,293,3.3,3.3,53,0.00,,,0.00,WUHU216HW,2013-01-06 02:40:00,
2013-01-05 21:45:00,36.5,20.9,26.65,WNW,293,0.0,4.9,53,0.00,,,0.00,WUHU216HW,2013-01-06 02:45:00,
2013-01-05 21:50:00,36.5,20.9,26.66,West,270,2.6,4.9,53,0.00,,,0.00,WUHU216HW,2013-01-06 02:50:00,
2013-01-05 21:55:00,36.6,21.1,26.65,WNW,293,0.8,2.6,53,0.00,,,0.00,WUHU216HW,2013-01-06 02:55:00,
2013-01-05 22:00:00,36.6,21.1,26.65,WNW,293,0.0,2.6,53,0.00,,,0.00,WUHU216HW,2013-01-06 03:00:00,
2013-01-05 22:05:00,36.6,21.1,26.65,West,270,0.0,0.8,53,0.00,,,0.00,WUHU216HW,2013-01-06 03:05:00,
2013-01-05 22:10:00,36.6,21.1,26.65,West,270,0.0,0.0,53,0.00,,,0.00,WUHU216HW,2013-01-06 03:10:00,
2013-01-05 22:15:00,36.6,21.1,26.64,SW,225,0.0,0.0,53,0.00,,,0.00,WUHU216HW,2013-01-06 03:15:00,
2013-01-05 22:20:00,36.5,20.9,26.65,WNW,293,3.5,3.5,53,0.00,,,0.00,WUHU216HW,2013-01-06 03:20:00,
2013-01-05 22:25:00,36.5,20.9,26.63,SSW,203,0.0,3.5,53,0.00,,,0.00,WUHU216HW,2013-01-06 03:25:00,
2013-01-05 22:30:00,36.6,21.1,26.64,West,270,0.0,3.5,53,0.00,,,0.00,WUHU216HW,2013-01-06 03:30:00,
2013-01-05 22:35:00,36.6,21.1,26.65,NW,315,4.9,4.9,53,0.00,,,0.00,WUHU216HW,2013-01-06 03:35:00,
2013-01-05 22:40:00,36.5,20.9,26.65,WNW,293,7.6,7.6,53,0.00,,,0.00,WUHU216HW,2013-01-06 03:40:00,
2013-01-05 22:45:00,36.3,21.2,26.65,WNW,293,8.5,8.5,54,0.00,,,0.00,WUHU216HW,2013-01-06 03:45:00,
2013-01-05 22:50:00,36.3,21.2,26.65,NW,315,0.0,8.5,54,0.00,,,0.00,WUHU216HW,2013-01-06 03:50:00,
2013-01-05 22:55:00,36.1,21.5,26.64,WNW,293,5.8,5.8,55,0.00,,,0.00,WUHU216HW,2013-01-06 03:55:00,
2013-01-05 23:00:00,36.1,21.5,26.64,WNW,293,2.4,5.8,55,0.00,,,0.00,WUHU216HW,2013-01-06 04:00:00,
2013-01-05 23:05:00,36.1,21.5,26.63,NW,315,6.2,6.2,55,0.00,,,0.00,WUHU216HW,2013-01-06 04:05:00,
2013-01-05 23:10:00,35.9,20.9,26.63,WNW,293,8.5,8.5,54,0.00,,,0.00,WUHU216HW,2013-01-06 04:10:00,
2013-01-05 23:15:00,35.9,20.9,26.62,WNW,293,8.2,8.5,54,0.00,,,0.00,WUHU216HW,2013-01-06 04:15:00,
2013-01-05 23:20:00,35.9,20.9,26.61,WNW,293,7.3,8.2,54,0.00,,,0.00,WUHU216HW,2013-01-06 04:20:00,
2013-01-05 23:25:00,35.7,21.1,26.63,WNW,293,7.1,8.2,55,0.00,,,0.00,WUHU216HW,2013-01-06 04:25:00,
2013-01-05 23:30:00,35.7,21.1,26.62,WNW,293,6.9,8.9,55,0.00,,,0.00,WUHU216HW,2013-01-06 04:30:00,
2013-01-05 23:35:00,35.7,21.1,26.61,WNW,293,7.3,8.9,55,0.00,,,0.00,WUHU216HW,2013-01-06 04:35:00,
2013-01-05 23:40:00,35.4,20.8,26.62,WNW,293,10.9,10.9,55,0.00,,,0.00,WUHU216HW,2013-01-06 04:40:00,
2013-01-05 23:45:00,35.4,21.2,26.62,West,270,12.5,12.5,56,0.00,,,0.00,WUHU216HW,2013-01-06 04:45:00,
2013-01-05 23:50:00,35.4,21.2,26.63,NW,315,14.7,14.7,56,0.00,,,0.00,WUHU216HW,2013-01-06 04:50:00,
2013-01-05 23:55:00,35.4,21.2,26.63,WNW,293,16.7,18.1,56,0.00,,,0.00,WUHU216HW,2013-01-06 04:55:00,